Regional Weather Roundup
Issued by NWS Memphis, TN

Home | Current Version | Previous Version | Text Only | Print | Product List | Glossary On
Versions: 1 2 3 4 5 6 7 8 9 10 11 12 13 14 15 16 17 18 19 20 21 22 23 24 25 26 27 28 29 30 31 32 33 34 35 36 37 38 39 40 41 42 43 44 45 46 47 48 49 50
000
ASUS44 KMEG 211010
RWRMEG
MEMPHIS CWA HOURLY WEATHER ROUNDUP
NATIONAL WEATHER SERVICE MEMPHIS TN
500 AM CDT SUN SEP 21 2014

...WEST TENNESSEE...

CITY           SKY/WX    TMP DP  RH WIND       PRES   REMARKS
MEMPHIS INTL   CLEAR     72  66  81 SW6       29.99S
NWS MEMPHIS      N/A     68 N/A N/A MISG        N/A
JACKSON        CLEAR     68  65  90 SW6       29.98F
LEXINGTON      CLEAR     64  64 100 CALM      29.98S
SAVANNAH       CLEAR     64  64 100 CALM      30.00R
DYERSBURG      CLEAR     72  59  64 W8        29.99R
UNION CITY     CLEAR     70  66  88 SW6       29.96R
PARIS          CLEAR     66  64  94 SW6       29.97S
HUNTINGDON     CLEAR     68  64  86 CALM      29.98S


...EASTERN ARKANSAS...

CITY           SKY/WX    TMP DP  RH WIND       PRES   REMARKS
JONESBORO      CLEAR     70  66  87 CALM      29.98S
WEST MEMPHIS   CLEAR     65  65 100 CALM      29.98S FOG
BATESVILLE     CLEAR     68  64  88 CALM      29.99F
NEWPORT        CLEAR     69  66  90 SW3       30.00S
WALNUT RIDGE   CLEAR     66  54  63 S5        29.97S
BLYTHEVILLE    CLEAR     70  68  93 SW5       29.98R
SEARCY         CLEAR     65  65 100 CALM      30.00F FOG
STUTTGART        N/A     66  64  94 W3        30.00S VSB 3/4
PINE BLUFF     CLEAR     69  67  93 CALM      30.00S
MONTICELLO     CLEAR     69  65  86 CALM      30.00S


...NORTH MISSISSIPPI...

CITY           SKY/WX    TMP DP  RH WIND       PRES   REMARKS
TUPELO         CLEAR     67  65  93 CALM      30.01R
OXFORD         CLEAR     64  64 100 CALM      30.02S
OLIVE BRANCH   CLEAR     66  66 100 SW6       30.00S
TUNICA         CLEAR     68  66  94 S3        30.00S FOG
CLARKSDALE     CLEAR     68  68 100 CALM      30.01S
CORINTH          N/A     64  63  94 CALM      29.99S FOG
GRENADA        CLEAR     64  64 100 CALM      30.01S
GREENWOOD      CLEAR     67  64  90 CALM      30.01R
COLUMBUS       CLEAR     64  64 100 SE5       30.01S
STARKVILLE     FAIR      63  61  94 CALM      30.01S
GOLDEN TRIANGL CLEAR     64  61  88 CALM      30.01F


...SOUTHEAST MISSOURI...

CITY           SKY/WX    TMP DP  RH WIND       PRES   REMARKS
WEST PLAINS    PTCLDY    69  65  86 W6        30.02S
POPLAR BLUFF   CLEAR     68  64  87 SW6       29.94F
CAPE GIRARDEAU MOCLDY    70  67  90 SW6       29.93F


...NORTHWEST ALABAMA...

CITY           SKY/WX    TMP DP  RH WIND       PRES   REMARKS
MUSCLE SHOALS  CLEAR     63  61  93 CALM      30.01F


...MIDDLE TENNESSEE...

CITY           SKY/WX    TMP DP  RH WIND       PRES   REMARKS
NASHVILLE      PTCLDY    66  64  93 CALM      29.97F
CLARKSVILLE    PTCLDY    71  66  84 SW6       29.95S
DICKSON        CLEAR     70  64  83 SW6       29.98S
COLUMBIA       CLEAR     64  64 100 S5        29.98S
LEWISBURG      CLEAR     69  63  81 SW5       29.99S


...WESTERN KENTUCKY...

CITY           SKY/WX    TMP DP  RH WIND       PRES   REMARKS
PADUCAH        CLEAR     73  67  81 SW7       29.92F
FORT CAMPBELL  CLEAR     69  69 100 SW10      29.95S


...CENTRAL ARKANSAS...

CITY           SKY/WX    TMP DP  RH WIND       PRES   REMARKS
LITTLE ROCK    CLEAR     70  66  87 CALM      30.00F


SKY/WX REPORTED AS FAIR MEANS FEW OR NO CLOUDS BELOW
12 THOUSAND FEET.



USA.gov is the U.S. government's official web portal to all federal, state and local government web resources and services.